User: anonymous   Login
Location: Albany
(35.0000°S, 118.0000°E)
Time: 03:06:35
(UTC-04:00)
Language:

Atlas Centaur 2 - Orbit

View from above orbital plane
View from above orbital plane
View from above satellite
View from above satellite

Ground track
Ground track

The orbit data is extracted from the following two-line orbital elements,

1   694U 63047A   16175.85093905 +.00000773 +00000-0 +88213-4 0  9991
2   694 030.3577 335.8371 0588960 163.4391 198.6349 14.01782198632775
Epoch (UTC): 23 June 2016 20:25:21
Eccentricity: 0.0588960
inclination: 30.3577°
perigee height: 460 km
apogee height: 1315 km
right ascension of ascending node: 335.8371°
argument of perigee: 163.4391°
revolutions per day: 14.01782198
mean anomaly at epoch: 198.6349°
orbit number at epoch: 63277

The dashed part of the orbit path shows where the satellite is in the earth's shadow,  

DLR